Dewpoint
11 12 12 11 10 11 11 10 7 6 6 6 6 6 5 -1 -5 3 7 -6 -7 -8 -9 -10 -10 -12 -13 -17 -16 -16 -19 -20 -20 -19 -18 -18 -18 -18 -18 -19 -19 -19 -19
7 9 11 12 11 10 10 8 6 7 7 6 6 6 6 2 -6 -4 4 2 -9 -9 -9 -8 -10 -12 -15 -14 -16 -17 -18 -18 -18 -17 -17 -18 -18 -18 -18 -18 -19 -19 -18
6 5 8 11 11 11 8 6 6 6 7 7 6 6 6 4 -6 -8 -9 4 -3 -9 -10 -10 -12 -14 -14 -15 -16 -17 -17 -17 -17 -17 -17 -18 -18 -19 -19 -19 -19 -19 -19
6 5 8 11 11 11 9 6 5 6 7 7 7 7 7 6 -4 -8 -9 -10 -7 -2 -11 -11 -13 -13 -15 -16 -16 -17 -16 -16 -16 -17 -17 -18 -19 -19 -19 -20 -20 -19 -16
11 9 7 10 11 10 9 8 6 5 7 8 7 7 7 6 -1 -7 -8 -9 -10 -11 -8 -13 -13 -14 -15 -16 -16 -16 -15 -15 -16 -16 -17 -18 -18 -19 -20 -20 -11 -7 -4
10 11 10 9 10 9 9 8 8 7 8 9 8 7 7 6 3 -6 -7 -8 -9 -12 -12 -13 -13 -14 -14 -15 -15 -15 -14 -15 -15 -16 -16 -17 -18 -18 -18 -14 -7 2 3
10 10 10 10 8 7 9 7 8 9 8 9 8 7 7 6 5 -4 -6 -7 -8 -11 -11 -12 -12 -12 -12 -13 -13 -13 -13 -13 -14 -15 -16 -17 -18 -17 -10 -3 2 2 3
8 9 9 9 10 9 8 8 8 9 9 9 9 4 2 3 5 2 -5 -5 -6 -9 -10 -11 -12 -10 -11 -11 -12 -12 -12 -12 -13 -15 -16 -17 -16 -7 -1 2 2 2 2
7 8 8 8 9 10 9 7 6 7 10 9 9 6 4 4 2 2 -2 -5 -5 -7 -9 -10 -10 -10 -9 -10 -11 -11 -11 -11 -13 -14 -15 -17 -16 -13 -2 1 2 2 2
2 5 8 7 7 8 8 9 7 6 9 9 9 9 8 4 -0 -1 -3 -3 -5 -6 -7 -8 -8 -9 -8 -9 -10 -10 -10 -11 -13 -13 -15 -17 -18 -16 -6 -0 1 1 1
0 1 2 7 7 8 8 8 9 8 7 9 8 9 9 8 4 1 -1 -1 -3 -5 -6 -7 -8 -8 -8 -8 -9 -10 -10 -11 -13 -14 -16 -18 -19 -18 -5 -0 0 0 1
3 2 3 4 7 7 7 8 8 9 9 9 9 9 9 9 8 6 1 2 -3 -4 -5 -6 -7 -7 -7 -7 -9 -10 -11 -12 -13 -15 -17 -18 -18 -14 -10 -7 -5 -2 -1
4 2 4 6 6 6 6 7 7 8 9 10 10 9 9 9 9 8 5 4 -2 -3 -3 -5 -6 -7 -7 -5 -9 -10 -12 -13 -14 -15 -15 -18 -20 -21 -23 -26 -18 -10 -4
10 4 3 5 6 7 8 8 8 7 8 9 10 10 10 9 9 8 7 4 -2 -3 -3 -4 -2 2 1 -9 -11 -12 -13 -13 -13 -11 -16 -20 -21 -23 -27 -30 -31 -31 -17
2 2 3 4 7 8 8 8 8 8 8 9 10 10 10 10 9 8 6 2 -1 -3 -1 1 2 -5 -8 -9 -11 -12 -11 -5 -4 -8 -16 -21 -24 -28 -29 -31 -31 -31 -20
-1 -1 -2 -0 1 5 9 10 9 9 10 10 10 10 9 9 7 4 2 -2 -3 -1 1 -0 -2 -2 -7 -7 -7 -2 0 -0 -3 -11 -20 -24 -27 -27 -28 -28 -27 -15 -6
-3 -3 -0 3 4 5 8 9 9 9 9 9 9 9 8 7 4 5 1 -2 -1 1 1 0 -1 -1 -0 -1 -0 -0 -0 -5 -15 -19 -23 -27 -27 -27 -26 -26 -16 -7 -6
-2 1 -0 3 8 8 9 8 9 9 9 8 8 7 7 5 2 -1 -2 -0 1 1 0 0 0 -0 -1 -1 -1 -2 -11 -17 -20 -23 -24 -23 -25 -27 -25 -23 -14 -7 -7
6 4 6 3 7 7 7 7 8 8 7 7 6 5 4 0 -1 0 1 1 1 0 -0 -1 -1 -1 -2 -5 -15 -16 -18 -18 -20 -19 -21 -26 -25 -21 -18 -16 -14 -9 -7
6 5 6 5 6 6 6 7 7 6 5 4 2 1 -0 -1 0 1 0 1 -0 -1 -1 -2 -2 -6 -12 -16 -16 -14 -9 -9 -9 -11 -18 -20 -15 -15 -15 -14 -14 -14 -14
5 4 4 6 6 4 5 5 4 3 2 1 -1 -0 0 1 0 -0 -0 -1 -2 -2 -5 -13 -12 -9 -7 -7 -8 -8 -8 -9 -10 -12 -11 -9 -9 -9 -9 -11 -13 -14 -13
3 3 3 3 2 1 0 -0 -1 -1 -1 -0 0 0 0 -0 -1 -2 -2 -5 -11 -18 -17 -12 -8 -8 -8 -8 -8 -8 -9 -9 -9 -10 -8 -8 -9 -9 -11 -12 -13 -13 -13
-0 -1 -0 -1 -1 -1 -1 -1 -0 0 0 -0 -0 -1 -2 -2 -2 -7 -16 -19 -20 -21 -21 -11 -8 -8 -8 -8 -9 -12 -9 -9 -9 -9 -8 -9 -10 -9 -10 -10 -12 -12 -12
-1 -1 -1 -1 -0 -1 -1 -0 -1 -1 -1 -2 -1 -2 -8 -15 -18 -19 -20 -23 -24 -20 -16 -11 -9 -9 -9 -9 -9 -9 -9 -9 -8 -9 -8 -9 -9 -9 -10 -11 -12 -12 -13
-1 -2 -2 -1 -1 -1 -2 -2 -2 -2 -6 -14 -17 -18 -18 -21 -25 -27 -21 -15 -12 -8 -11 -13 -16 -18 -19 -19 -16 -12 -11 -9 -9 -9 -9 -9 -10 -9 -10 -11 -12 -12 -12
-1 -2 -2 -2 -2 -1 -6 -15 -16 -17 -18 -20 -21 -24 -27 -25 -23 -14 -8 -8 -8 -10 -12 -17 -12 -18 -17 -13 -12 -11 -11 -10 -9 -10 -9 -10 -10 -10 -9 -10 -10 -10 -11
Wind_Speed
16 15 14 14 14 14 14 14 14 13 11 10 9 8 7 8 7 6 7 8 10 10 8 6 6 5 4 3 3 3 3 3 4 4 5 6 7 7 8 8 8 9 10
20 19 17 17 16 16 16 16 16 15 14 12 11 10 9 9 9 8 7 8 11 10 9 7 6 6 6 5 4 5 4 4 4 5 6 7 7 7 8 8 9 10 10
23 22 20 18 19 18 18 19 19 19 17 16 14 12 12 11 11 10 10 8 9 11 11 10 9 8 7 6 7 5 5 5 5 7 8 7 8 9 9 10 11 11 11
26 24 22 20 19 19 22 22 22 21 19 18 16 15 14 14 13 12 13 13 12 10 12 12 11 10 9 8 8 7 7 7 9 9 9 9 9 10 11 11 12 12 11
28 27 25 23 21 21 24 25 25 23 22 21 19 18 16 16 15 15 15 15 15 15 13 13 14 12 10 10 9 9 9 10 11 13 12 12 12 12 11 11 10 11 10
29 28 28 26 24 25 27 29 28 26 25 23 22 20 19 18 18 17 17 18 18 18 17 17 15 14 13 12 11 11 11 12 13 13 13 14 14 14 13 12 11 11 12
31 30 30 30 29 30 30 31 30 30 29 27 23 23 22 21 21 21 20 20 20 20 20 19 18 17 16 15 15 14 14 14 15 15 15 15 15 15 13 13 13 12 14
37 36 34 33 32 33 32 32 35 35 32 32 28 14 10 18 25 25 25 23 23 23 23 22 21 20 19 18 18 17 17 17 16 15 15 16 15 15 14 14 15 16 16
41 41 40 37 37 36 36 37 38 38 37 36 35 19 10 13 13 22 27 27 26 26 25 25 25 24 23 22 21 20 20 19 17 17 17 17 17 17 16 17 18 19 20
43 42 45 43 40 39 38 39 40 40 40 40 38 38 34 16 9 9 19 25 27 27 27 29 27 27 25 25 24 23 23 22 21 21 20 20 20 20 19 20 21 22 23
45 44 42 43 45 44 41 39 42 43 44 44 42 41 40 40 33 20 10 18 25 29 30 31 30 29 28 27 26 26 24 24 24 23 22 22 22 24 22 21 22 23 24
36 38 40 41 41 46 46 42 42 43 46 45 46 44 43 41 41 37 26 25 23 24 30 31 32 31 30 28 28 27 25 25 25 24 23 25 27 27 26 26 26 25 26
34 33 33 36 38 40 45 47 45 43 43 45 48 46 45 45 43 38 33 31 28 29 26 29 31 29 28 28 29 27 26 25 25 24 29 30 31 33 33 33 31 29 27
27 29 32 32 33 35 38 43 47 44 44 42 45 46 46 46 44 43 40 34 31 30 29 25 26 31 31 27 28 24 23 25 26 29 31 33 33 34 35 35 34 33 32
28 29 29 33 31 32 34 38 43 44 45 43 42 45 47 44 45 44 40 36 33 29 29 27 26 24 25 26 25 24 24 30 30 31 33 33 34 34 34 34 35 34 33
23 26 27 28 30 31 32 33 36 40 41 40 40 42 43 42 43 39 37 36 33 32 27 24 26 26 21 23 23 29 33 33 32 33 32 34 34 34 35 36 35 32 28
24 26 26 25 25 26 26 27 29 31 35 36 35 34 36 38 39 38 37 32 28 26 26 24 22 24 27 30 30 30 29 28 32 33 34 32 33 34 34 34 32 28 27
22 20 22 22 20 21 22 23 23 25 27 30 31 31 33 34 32 26 20 18 18 20 21 23 23 24 25 25 26 25 26 29 31 32 32 31 31 31 29 28 27 25 26
14 12 16 18 16 16 18 19 20 22 24 25 26 26 27 24 21 19 19 19 17 20 20 19 19 20 21 20 21 22 24 26 27 28 29 29 27 25 24 25 26 27 28
10 13 15 16 15 16 18 18 20 20 21 20 18 17 14 13 15 16 17 16 16 16 17 19 18 17 19 18 19 18 17 18 21 23 26 24 22 22 23 24 24 26 27
10 15 24 16 15 16 15 15 14 13 13 13 11 11 12 12 13 13 14 13 14 15 15 14 14 12 10 11 12 14 17 19 22 22 21 18 19 22 23 24 26 26 26
4 4 4 5 6 7 8 10 10 11 10 10 11 10 10 11 11 11 12 9 9 12 12 12 13 12 11 12 12 14 17 18 21 17 15 23 23 25 26 26 26 27 27
6 10 13 13 13 14 11 10 10 9 8 8 7 8 9 9 9 7 8 9 11 13 15 14 13 12 12 13 17 20 14 18 23 21 21 27 25 26 24 26 28 28 27
11 13 13 14 14 14 9 9 8 8 8 7 6 3 3 3 5 8 10 12 13 13 13 14 13 13 14 14 12 16 19 19 21 21 18 27 23 23 25 27 29 24 18
14 13 13 12 11 13 9 8 6 5 4 3 2 1 4 7 9 9 9 12 12 11 14 16 17 17 16 16 15 16 17 16 20 21 20 20 22 23 32 32 23 24 27
13 11 11 10 9 8 9 8 7 5 3 3 4 6 8 8 8 5 8 10 11 11 13 14 11 11 11 11 13 15 17 18 18 23 12 23 28 24 20 28 23 29 29
Wind_Direction
215 212 215 215 212 211 211 215 223 230 232 236 243 246 257 258 252 228 213 242 251 261 263 250 244 249 256 266 280 288 303 310 319 327 328 324 317 314 310 307 303 298 294
226 224 220 220 219 220 219 221 226 231 234 238 245 249 257 259 256 240 210 246 247 250 249 245 243 244 246 260 278 296 301 308 316 317 316 313 310 306 304 302 300 299 295
236 233 229 225 223 224 225 227 230 231 234 237 244 250 256 257 254 249 240 217 246 246 246 244 241 241 251 271 285 290 298 304 311 313 315 313 310 306 303 302 299 295 293
241 237 233 226 224 223 229 232 235 234 234 237 243 248 256 256 252 246 245 240 234 237 243 243 241 240 247 259 265 278 291 299 310 315 317 311 306 302 297 295 294 295 294
245 239 237 231 222 223 232 234 237 236 235 236 240 246 252 254 253 249 249 246 245 236 237 243 240 245 252 255 260 274 285 298 309 315 317 314 314 311 307 299 296 299 300
249 245 241 236 228 228 231 234 237 238 237 237 238 243 249 251 251 250 246 247 248 242 240 242 239 243 248 251 255 268 279 289 300 305 306 308 309 307 307 305 298 294 299
252 250 246 240 236 235 233 236 237 238 235 233 235 241 247 250 251 248 245 245 246 245 241 239 240 245 247 250 253 261 272 283 293 293 296 298 299 298 296 296 296 293 291
249 248 249 248 243 238 232 234 234 235 234 233 231 227 239 251 249 245 244 243 244 243 242 241 242 245 248 251 255 261 269 279 289 289 290 291 290 291 291 291 288 290 291
250 248 248 248 249 243 240 240 237 237 234 235 229 225 216 231 230 239 240 240 240 241 242 243 244 247 249 251 257 262 269 281 284 285 282 282 279 281 285 287 287 284 283
250 248 248 249 249 250 247 245 244 240 235 238 231 230 230 224 213 238 229 237 238 241 242 244 245 248 251 255 259 264 273 281 286 286 286 285 285 285 286 288 287 286 284
257 256 255 249 248 251 251 248 245 241 237 238 239 235 235 238 241 240 246 241 238 238 239 242 244 247 249 252 258 264 271 280 284 286 286 286 287 289 289 288 285 281 278
262 258 258 258 253 247 251 252 251 247 242 238 240 239 241 238 238 240 241 248 248 247 243 244 243 246 249 253 257 265 270 275 278 282 284 288 291 289 288 288 285 283 280
262 265 267 264 259 254 249 250 251 252 249 243 241 244 244 245 245 250 250 251 248 247 248 245 241 247 253 257 259 264 267 272 277 282 289 292 291 291 289 287 286 285 284
259 263 263 266 266 260 256 250 250 252 254 249 246 247 248 248 248 249 252 250 243 242 238 235 238 246 248 249 255 258 265 271 278 288 291 291 291 290 289 288 288 287 284
262 264 264 264 263 260 259 256 251 250 252 252 248 245 247 247 246 247 248 248 244 236 234 238 246 244 241 238 242 250 264 276 283 290 292 292 294 292 292 291 289 285 283
258 261 261 260 261 262 260 259 255 252 250 250 247 246 245 243 241 243 244 243 234 237 238 237 234 239 236 246 254 266 273 279 290 291 292 295 296 295 294 292 290 287 283
267 266 266 267 264 261 261 261 259 256 253 252 252 248 244 241 239 239 238 236 241 242 242 241 239 243 252 259 263 269 280 290 290 294 298 298 295 294 292 290 288 283 280
269 263 265 266 266 260 256 253 253 253 252 249 245 240 238 237 234 231 231 246 250 255 251 246 247 246 254 266 276 292 288 284 289 292 295 296 296 294 292 290 286 282 279
271 268 273 271 261 257 253 250 246 242 241 240 237 232 230 228 230 241 251 253 256 254 252 255 258 266 275 288 287 285 292 293 295 298 301 304 301 294 290 288 287 284 280
264 275 262 258 251 249 247 241 238 231 224 219 215 216 218 226 239 243 244 252 250 252 258 265 273 280 283 286 289 296 294 293 294 294 300 305 294 292 292 287 286 286 284
274 273 270 257 238 228 229 225 217 206 196 191 195 211 220 228 237 241 247 246 250 258 273 275 279 285 285 279 279 284 289 296 297 304 301 299 296 296 295 299 301 297 290
275 253 212 204 187 167 140 139 151 161 168 181 193 202 216 227 227 231 246 267 273 263 270 271 269 274 278 282 285 290 291 302 299 308 295 298 299 299 302 302 299 296 294
86 108 116 123 125 123 127 136 150 161 168 175 188 200 210 223 250 271 269 268 274 271 272 273 272 274 282 283 279 291 290 285 286 294 295 296 308 298 303 300 302 304 300
105 115 116 121 125 125 130 132 134 148 155 166 189 231 279 275 269 275 279 280 278 279 273 269 272 280 282 283 282 288 294 292 290 296 294 290 305 296 301 303 312 308 303
113 113 109 109 114 117 123 128 136 112 85 82 71 306 298 293 287 286 284 278 281 279 285 284 286 283 278 278 278 280 286 285 290 298 299 295 311 303 308 313 315 318 320
105 99 91 83 84 87 83 72 80 63 33 354 319 312 312 301 296 272 276 274 281 289 290 292 291 290 285 284 283 283 286 286 295 306 306 309 311 314 311 314 308 308 311
Height
1549 1551 1552 1553 1554 1556 1556 1556 1556 1556 1557 1557 1557 1558 1557 1557 1557 1557 1558 1555 1555 1556 1555 1555 1555 1554 1554 1554 1554 1554 1553 1553 1552 1552 1552 1552 1552 1551 1551 1551 1550 1550 1550
1544 1545 1548 1550 1551 1552 1552 1553 1553 1553 1554 1554 1555 1555 1555 1555 1556 1555 1557 1554 1554 1554 1554 1554 1554 1554 1553 1553 1553 1553 1553 1552 1552 1551 1551 1550 1549 1549 1549 1549 1548 1548 1547
1541 1541 1543 1544 1545 1547 1549 1549 1549 1549 1550 1551 1552 1552 1552 1552 1552 1552 1553 1555 1553 1553 1553 1553 1552 1552 1552 1551 1551 1551 1551 1551 1550 1550 1549 1549 1548 1547 1547 1546 1546 1546 1545
1536 1537 1538 1539 1542 1543 1544 1544 1545 1546 1547 1548 1549 1549 1550 1549 1549 1549 1549 1549 1550 1551 1551 1550 1551 1550 1550 1550 1549 1549 1549 1549 1548 1547 1546 1546 1545 1545 1544 1544 1544 1543 1543
1531 1532 1533 1534 1535 1536 1538 1540 1541 1542 1543 1544 1545 1545 1546 1546 1546 1545 1546 1545 1546 1546 1547 1547 1548 1549 1549 1548 1548 1547 1547 1546 1546 1544 1544 1543 1543 1542 1541 1541 1541 1541 1540
1524 1526 1527 1529 1530 1530 1531 1533 1536 1538 1540 1541 1541 1541 1542 1542 1542 1542 1542 1542 1542 1542 1543 1544 1544 1545 1546 1546 1546 1546 1545 1544 1543 1542 1541 1540 1540 1539 1539 1538 1538 1538 1538
1519 1519 1520 1521 1523 1524 1525 1526 1530 1532 1533 1536 1538 1537 1537 1537 1537 1537 1537 1538 1538 1540 1539 1541 1541 1542 1542 1543 1543 1542 1542 1541 1540 1539 1538 1537 1537 1536 1536 1535 1535 1536 1536
1512 1512 1513 1514 1515 1517 1519 1520 1521 1523 1527 1529 1532 1534 1535 1533 1531 1531 1531 1532 1533 1534 1535 1537 1537 1538 1538 1538 1538 1538 1538 1537 1536 1536 1535 1534 1533 1533 1533 1533 1533 1532 1533
1503 1504 1504 1507 1508 1509 1510 1511 1514 1516 1518 1521 1524 1529 1528 1526 1523 1524 1525 1527 1527 1528 1530 1532 1532 1533 1533 1533 1534 1533 1533 1533 1532 1531 1530 1529 1529 1527 1528 1528 1529 1528 1528
1494 1494 1495 1499 1500 1501 1503 1503 1505 1508 1511 1512 1516 1518 1518 1519 1520 1520 1518 1520 1522 1523 1525 1526 1527 1528 1529 1530 1529 1529 1528 1528 1527 1526 1525 1524 1523 1522 1521 1521 1522 1522 1522
1485 1486 1487 1489 1491 1492 1494 1496 1497 1498 1501 1504 1505 1508 1511 1513 1514 1516 1515 1515 1516 1516 1518 1519 1521 1521 1522 1523 1524 1523 1523 1523 1522 1521 1519 1518 1516 1515 1514 1514 1514 1514 1513
1476 1476 1478 1480 1482 1483 1486 1488 1489 1491 1493 1496 1496 1499 1501 1503 1505 1508 1511 1510 1512 1511 1513 1514 1514 1515 1514 1515 1517 1518 1517 1516 1515 1515 1514 1512 1511 1508 1506 1505 1504 1503 1503
1469 1469 1470 1471 1472 1474 1477 1478 1479 1482 1484 1487 1489 1490 1493 1495 1498 1500 1502 1504 1505 1505 1505 1507 1507 1510 1512 1511 1511 1513 1511 1510 1509 1508 1508 1506 1504 1501 1498 1496 1494 1492 1493
1464 1463 1462 1463 1464 1466 1467 1469 1470 1474 1476 1478 1481 1483 1485 1487 1490 1492 1494 1496 1496 1498 1498 1500 1501 1499 1502 1504 1505 1508 1504 1504 1504 1501 1500 1499 1497 1494 1490 1487 1485 1483 1482
1455 1456 1456 1455 1456 1458 1459 1460 1461 1464 1466 1468 1471 1473 1475 1479 1481 1483 1484 1485 1487 1489 1491 1492 1495 1496 1497 1494 1495 1498 1497 1498 1496 1494 1492 1490 1488 1484 1481 1478 1476 1473 1472
1449 1449 1449 1449 1449 1450 1452 1453 1454 1456 1458 1460 1462 1465 1468 1471 1472 1475 1476 1479 1477 1482 1483 1484 1487 1487 1491 1493 1492 1492 1490 1489 1488 1486 1484 1481 1479 1475 1472 1469 1467 1465 1463
1444 1444 1443 1442 1443 1443 1445 1446 1448 1450 1452 1454 1457 1459 1462 1463 1465 1466 1470 1472 1472 1476 1478 1479 1481 1481 1484 1487 1486 1483 1482 1481 1480 1478 1476 1473 1470 1465 1462 1459 1457 1457 1456
1438 1436 1436 1436 1438 1439 1440 1440 1442 1445 1446 1449 1450 1453 1454 1457 1460 1465 1470 1471 1469 1473 1475 1475 1473 1475 1479 1478 1478 1477 1477 1474 1472 1471 1468 1465 1461 1456 1453 1451 1449 1448 1447
1433 1430 1434 1431 1434 1436 1437 1437 1437 1438 1440 1443 1445 1448 1451 1455 1460 1463 1465 1466 1464 1466 1467 1473 1470 1470 1472 1471 1472 1471 1469 1467 1463 1461 1459 1457 1453 1449 1445 1444 1442 1440 1438
1428 1428 1429 1428 1429 1433 1434 1433 1434 1435 1437 1440 1444 1448 1452 1455 1459 1460 1463 1461 1463 1464 1466 1470 1467 1466 1465 1464 1464 1463 1465 1463 1459 1456 1451 1449 1446 1443 1440 1437 1435 1431 1429
1426 1424 1429 1428 1425 1431 1431 1430 1432 1435 1438 1441 1445 1449 1452 1454 1456 1458 1459 1460 1461 1462 1463 1463 1463 1462 1462 1464 1463 1461 1458 1456 1453 1449 1446 1444 1442 1438 1434 1429 1426 1423 1421
1425 1423 1425 1427 1428 1431 1432 1433 1434 1438 1441 1443 1446 1449 1451 1452 1453 1455 1457 1457 1458 1460 1459 1458 1459 1458 1459 1460 1458 1456 1453 1450 1447 1444 1442 1439 1436 1431 1426 1422 1419 1416 1414
1428 1430 1428 1429 1431 1434 1435 1437 1440 1442 1444 1445 1446 1449 1452 1452 1452 1453 1454 1455 1456 1455 1455 1456 1456 1455 1453 1454 1452 1448 1447 1446 1442 1440 1438 1432 1429 1423 1420 1415 1412 1408 1405
1437 1435 1436 1436 1435 1435 1438 1440 1441 1443 1445 1446 1447 1449 1450 1451 1451 1452 1452 1452 1453 1451 1450 1451 1450 1447 1447 1447 1447 1444 1442 1441 1438 1435 1434 1426 1423 1418 1413 1409 1405 1401 1399
1444 1444 1442 1441 1441 1441 1444 1444 1446 1446 1446 1447 1448 1449 1451 1450 1450 1449 1449 1449 1449 1447 1445 1444 1443 1441 1441 1441 1440 1439 1437 1436 1432 1428 1427 1422 1417 1412 1406 1400 1397 1394 1391
1448 1448 1447 1447 1446 1446 1446 1447 1448 1448 1448 1449 1449 1448 1447 1447 1446 1447 1447 1446 1444 1443 1442 1440 1439 1437 1436 1436 1435 1434 1432 1429 1427 1422 1421 1418 1411 1409 1398 1392 1390 1388 1384